Location: Dos Palmas
(32.4468°N, 116.8732°W)
Time: 00:23:50
(UTC+00:00)

Cosmos 1151 Rocket - Pass Details

Date: 20 June 2021
Orbit: 592 x 615 km, 82.5° (Epoch: 01 August)

Event Time Altitude Azimuth Distance (km) Brightness Sun altitude
Rises 10:56:21 0° 346° (NNW) 2,833 6.9 -18.5°
Reaches altitude 10° 10:58:37 10° 341° (NNW) 1,927 5.9 -18.1°
Maximum altitude 11:02:42 47° 267° (W) 791 3.2 -17.5°
Enters shadow 11:03:55 36° 222° (SW) 950 3.5 -17.3°
